Location: Christianberg
(48.9086°N, 14.0209°E)
Time: 22:19:46
(UTC+00:00)

Cosmos 1092 Rocket - Pass Details

Date: 20 June 2021
Orbit: 955 x 994 km, 82.9° (Epoch: 04 August)

Event Time Altitude Azimuth Distance (km) Brightness Sun altitude
Exits shadow 01:11:08 16° 200° (SSW) 2,263 5.3 -12.4°
Maximum altitude 01:16:06 69° 281° (WNW) 1,022 4.1 -12.0°
Drops below altitude 10° 01:22:15 10° 5° (N) 2,702 7.4 -11.5°
Sets 01:24:48 0° 8° (N) 3,655 8.3 -11.3°
